Time,TemperatureF,DewpointF,PressureIn,WindDirection,WindDirectionDegrees,WindSpeedMPH,WindSpeedGustMPH,Humidity,HourlyPrecipIn,Conditions,Clouds,dailyrainin,SoftwareType,DateUTC
2013-03-07 00:00:00,38.6,34.5,29.86,WSW,244,0.0,8.0,85,0.00,,---,0.00,VWS V14.01,2013-03-07 05:00:00,
2013-03-07 00:10:00,38.6,34.5,29.86,West,260,2.0,8.0,85,0.00,,---,0.00,VWS V14.01,2013-03-07 05:10:00,
2013-03-07 00:20:00,38.3,34.5,29.86,West,268,0.0,7.0,86,0.00,,---,0.00,VWS V14.01,2013-03-07 05:20:00,
2013-03-07 00:29:00,38.2,34.4,29.86,WNW,287,0.0,6.0,86,0.00,,---,0.00,VWS V14.01,2013-03-07 05:29:00,
2013-03-07 00:40:00,38.2,34.4,29.86,West,263,0.0,14.0,86,0.00,,---,0.00,VWS V14.01,2013-03-07 05:40:00,
2013-03-07 00:50:00,38.2,34.4,29.87,WSW,247,0.0,6.0,86,0.00,,---,0.00,VWS V14.01,2013-03-07 05:50:00,
2013-03-07 01:00:00,38.0,34.2,29.87,WNW,299,0.0,7.0,86,0.00,,---,0.00,VWS V14.01,2013-03-07 06:00:00,
2013-03-07 01:10:00,38.0,34.2,29.87,West,264,3.0,5.0,86,0.00,,---,0.00,VWS V14.01,2013-03-07 06:10:00,
2013-03-07 01:20:00,37.9,34.1,29.88,WNW,289,1.0,5.0,86,0.00,,---,0.00,VWS V14.01,2013-03-07 06:20:00,
2013-03-07 01:30:00,37.9,34.1,29.88,West,275,0.0,6.0,86,0.00,,---,0.00,VWS V14.01,2013-03-07 06:30:00,
2013-03-07 01:40:00,37.8,34.3,29.88,SW,236,0.0,6.0,87,0.00,,---,0.00,VWS V14.01,2013-03-07 06:40:00,
2013-03-07 01:50:00,37.6,34.1,29.88,NW,305,5.0,5.0,87,0.00,,---,0.00,VWS V14.01,2013-03-07 06:50:00,
2013-03-07 02:00:00,37.5,34.0,29.89,WSW,254,0.0,7.0,87,0.00,,---,0.00,VWS V14.01,2013-03-07 07:00:00,
2013-03-07 02:10:00,37.3,34.1,29.89,NW,309,2.0,3.0,88,0.00,,---,0.00,VWS V14.01,2013-03-07 07:10:00,
2013-03-07 02:20:00,37.3,33.8,29.89,WSW,246,3.0,7.0,87,0.00,,---,0.00,VWS V14.01,2013-03-07 07:20:00,
2013-03-07 02:30:00,37.5,34.0,29.89,WSW,257,1.0,7.0,87,0.00,,---,0.00,VWS V14.01,2013-03-07 07:30:00,
2013-03-07 02:40:00,37.6,33.8,29.89,WSW,240,3.0,13.0,86,0.00,,---,0.00,VWS V14.01,2013-03-07 07:40:00,
2013-03-07 02:50:00,37.6,33.8,29.89,West,271,1.0,6.0,86,0.00,,---,0.00,VWS V14.01,2013-03-07 07:50:00,
2013-03-07 03:00:00,37.5,33.7,29.89,West,261,2.0,7.0,86,0.00,,---,0.00,VWS V14.01,2013-03-07 08:00:00,
2013-03-07 03:10:00,37.3,33.5,29.89,WSW,247,0.0,7.0,86,0.00,,---,0.00,VWS V14.01,2013-03-07 08:10:00,
2013-03-07 03:20:00,37.2,33.7,29.90,SW,236,1.0,6.0,87,0.00,,---,0.00,VWS V14.01,2013-03-07 08:20:00,
2013-03-07 03:30:00,37.2,33.7,29.90,West,274,0.0,6.0,87,0.00,,---,0.00,VWS V14.01,2013-03-07 08:30:00,
2013-03-07 03:40:00,37.0,33.5,29.90,West,270,1.0,6.0,87,0.00,,---,0.00,VWS V14.01,2013-03-07 08:40:00,
2013-03-07 03:50:00,36.9,33.4,29.90,WSW,253,0.0,5.0,87,0.00,,---,0.00,VWS V14.01,2013-03-07 08:50:00,
2013-03-07 04:00:00,36.9,33.4,29.90,West,261,0.0,7.0,87,0.00,,---,0.00,VWS V14.01,2013-03-07 09:00:00,
2013-03-07 04:10:00,36.8,33.6,29.90,NW,308,0.0,4.0,88,0.00,,---,0.00,VWS V14.01,2013-03-07 09:10:00,
2013-03-07 04:20:00,36.6,33.4,29.89,WSW,248,0.0,5.0,88,0.00,,---,0.00,VWS V14.01,2013-03-07 09:20:00,
2013-03-07 04:29:00,36.5,33.6,29.90,WSW,254,0.0,0.0,89,0.00,,---,0.00,VWS V14.01,2013-03-07 09:29:00,
2013-03-07 04:40:00,36.3,33.4,29.90,WSW,250,0.0,2.0,89,0.00,,---,0.00,VWS V14.01,2013-03-07 09:40:00,
2013-03-07 04:50:00,36.3,33.4,29.91,WSW,251,0.0,0.0,89,0.00,,---,0.00,VWS V14.01,2013-03-07 09:50:00,
2013-03-07 04:59:00,36.3,33.4,29.92,WSW,254,1.0,3.0,89,0.00,,---,0.00,VWS V14.01,2013-03-07 09:59:00,
2013-03-07 05:10:00,36.3,33.4,29.92,WSW,248,0.0,3.0,89,0.00,,---,0.00,VWS V14.01,2013-03-07 10:10:00,
2013-03-07 05:20:00,36.3,33.4,29.93,WSW,256,0.0,3.0,89,0.00,,---,0.00,VWS V14.01,2013-03-07 10:20:00,
2013-03-07 05:29:00,36.3,33.4,29.93,West,277,0.0,6.0,89,0.00,,---,0.00,VWS V14.01,2013-03-07 10:29:00,
2013-03-07 05:40:00,36.0,33.4,29.93,West,277,0.0,0.0,90,0.00,,---,0.00,VWS V14.01,2013-03-07 10:40:00,
2013-03-07 05:50:00,35.9,33.3,29.93,WSW,253,2.0,2.0,90,0.00,,---,0.00,VWS V14.01,2013-03-07 10:50:00,
2013-03-07 05:59:00,35.9,33.3,29.94,WSW,253,0.0,2.0,90,0.00,,---,0.00,VWS V14.01,2013-03-07 10:59:00,
2013-03-07 06:10:00,35.5,33.1,29.94,WSW,253,0.0,0.0,91,0.00,,---,0.00,VWS V14.01,2013-03-07 11:10:00,
2013-03-07 06:19:00,35.2,33.1,29.95,WSW,253,0.0,0.0,92,0.00,,---,0.00,VWS V14.01,2013-03-07 11:19:00,
2013-03-07 06:30:00,34.9,32.8,29.96,WSW,253,0.0,0.0,92,0.00,,---,0.00,VWS V14.01,2013-03-07 11:30:00,
2013-03-07 06:40:00,34.9,32.8,29.96,South,185,0.0,0.0,92,0.00,,---,0.00,VWS V14.01,2013-03-07 11:40:00,
2013-03-07 06:50:00,35.0,32.6,29.97,WSW,244,1.0,3.0,91,0.00,,---,0.00,VWS V14.01,2013-03-07 11:50:00,
2013-03-07 07:00:00,35.3,32.7,29.97,SW,220,0.0,3.0,90,0.00,,---,0.00,VWS V14.01,2013-03-07 12:00:00,
2013-03-07 07:10:00,35.6,33.0,29.97,WSW,248,0.0,2.0,90,0.00,,---,0.00,VWS V14.01,2013-03-07 12:10:00,
2013-03-07 07:20:00,35.9,33.3,29.98,West,278,0.0,2.0,90,0.00,,---,0.00,VWS V14.01,2013-03-07 12:20:00,
2013-03-07 07:30:00,36.0,33.4,29.99,WSW,250,0.0,3.0,90,0.00,,---,0.00,VWS V14.01,2013-03-07 12:30:00,
2013-03-07 07:39:00,36.5,33.6,29.99,SW,232,0.0,3.0,89,0.00,,---,0.00,VWS V14.01,2013-03-07 12:39:00,
2013-03-07 07:49:00,37.3,33.8,29.99,WSW,246,0.0,3.0,87,0.00,,---,0.00,VWS V14.01,2013-03-07 12:49:00,
2013-03-07 08:00:00,38.2,34.1,30.00,WSW,254,0.0,6.0,85,0.00,,---,0.00,VWS V14.01,2013-03-07 13:00:00,
2013-03-07 08:10:00,39.2,34.2,30.00,West,277,0.0,6.0,82,0.00,,---,0.00,VWS V14.01,2013-03-07 13:10:00,
2013-03-07 08:20:00,39.9,34.5,30.01,WNW,285,1.0,6.0,81,0.00,,---,0.00,VWS V14.01,2013-03-07 13:20:00,
2013-03-07 08:30:00,40.6,34.9,30.01,West,264,5.0,8.0,80,0.00,,---,0.00,VWS V14.01,2013-03-07 13:30:00,
2013-03-07 08:40:00,41.3,35.0,30.01,West,267,1.0,11.0,78,0.00,,---,0.00,VWS V14.01,2013-03-07 13:40:00,
2013-03-07 08:50:00,42.1,35.4,30.01,WSW,258,3.0,5.0,77,0.00,,---,0.00,VWS V14.01,2013-03-07 13:50:00,
2013-03-07 08:59:00,42.6,35.6,30.01,WNW,295,0.0,11.0,76,0.00,,---,0.00,VWS V14.01,2013-03-07 13:59:00,
2013-03-07 09:10:00,43.1,35.7,30.01,West,277,6.0,11.0,75,0.00,,---,0.00,VWS V14.01,2013-03-07 14:10:00,
2013-03-07 09:20:00,43.5,35.8,30.01,WNW,299,1.0,10.0,74,0.00,,---,0.00,VWS V14.01,2013-03-07 14:20:00,
2013-03-07 09:30:00,44.1,36.0,30.01,WNW,294,3.0,11.0,73,0.00,,---,0.00,VWS V14.01,2013-03-07 14:30:00,
2013-03-07 09:39:00,44.8,36.3,30.01,WNW,282,7.0,8.0,72,0.00,,---,0.00,VWS V14.01,2013-03-07 14:39:00,
2013-03-07 09:50:00,45.1,36.3,30.02,WNW,301,7.0,10.0,71,0.00,,---,0.00,VWS V14.01,2013-03-07 14:50:00,
2013-03-07 09:59:00,45.7,36.8,30.01,West,268,3.0,7.0,71,0.00,,---,0.00,VWS V14.01,2013-03-07 14:59:00,
2013-03-07 10:09:00,46.1,36.5,30.01,West,264,3.0,8.0,69,0.00,,---,0.00,VWS V14.01,2013-03-07 15:09:00,
2013-03-07 10:20:00,46.7,37.1,30.01,WNW,284,5.0,8.0,69,0.00,,---,0.00,VWS V14.01,2013-03-07 15:20:00,
2013-03-07 10:29:00,47.3,37.3,30.01,WNW,301,0.0,10.0,68,0.00,,---,0.00,VWS V14.01,2013-03-07 15:29:00,
2013-03-07 10:40:00,47.1,36.7,30.01,West,267,0.0,13.0,67,0.00,,---,0.00,VWS V14.01,2013-03-07 15:40:00,
2013-03-07 10:50:00,46.8,36.4,30.00,West,261,6.0,7.0,67,0.00,,---,0.00,VWS V14.01,2013-03-07 15:50:00,
2013-03-07 10:59:00,47.1,36.3,30.00,WNW,282,4.0,12.0,66,0.00,,---,0.00,VWS V14.01,2013-03-07 15:59:00,
2013-03-07 11:10:00,47.1,36.3,30.00,SW,230,5.0,8.0,66,0.00,,---,0.00,VWS V14.01,2013-03-07 16:10:00,
2013-03-07 11:19:00,47.1,36.0,30.01,NNW,337,0.0,8.0,65,0.00,,---,0.00,VWS V14.01,2013-03-07 16:19:00,
2013-03-07 11:30:00,47.1,35.6,30.00,SW,232,3.0,13.0,64,0.00,,---,0.00,VWS V14.01,2013-03-07 16:30:00,
2013-03-07 11:40:00,48.3,36.3,30.00,NNW,346,2.0,8.0,63,0.00,,---,0.00,VWS V14.01,2013-03-07 16:40:00,
2013-03-07 11:49:00,48.6,37.0,30.00,NW,315,3.0,7.0,64,0.00,,---,0.00,VWS V14.01,2013-03-07 16:49:00,
2013-03-07 12:00:00,48.0,36.4,30.00,West,278,0.0,19.0,64,0.00,,---,0.00,VWS V14.01,2013-03-07 17:00:00,
2013-03-07 12:09:00,47.9,37.1,30.00,WSW,253,2.0,8.0,66,0.00,,---,0.00,VWS V14.01,2013-03-07 17:09:00,
2013-03-07 12:20:00,48.0,36.4,30.00,WNW,298,1.0,8.0,64,0.00,,---,0.00,VWS V14.01,2013-03-07 17:20:00,
2013-03-07 12:29:00,47.9,35.9,29.99,SW,232,3.0,10.0,63,0.00,,---,0.00,VWS V14.01,2013-03-07 17:29:00,
2013-03-07 12:39:00,48.5,37.3,29.99,WSW,258,0.0,8.0,65,0.00,,---,0.00,VWS V14.01,2013-03-07 17:39:00,
2013-03-07 12:50:00,48.6,36.6,29.99,SW,227,7.0,8.0,63,0.00,,---,0.00,VWS V14.01,2013-03-07 17:50:00,
2013-03-07 12:59:00,48.2,35.8,29.98,WSW,243,7.0,11.0,62,0.00,,---,0.00,VWS V14.01,2013-03-07 17:59:00,
2013-03-07 13:19:00,48.0,36.4,29.98,NW,316,1.0,9.0,64,0.00,,---,0.00,VWS V14.01,2013-03-07 18:19:00,
2013-03-07 13:29:00,49.1,37.1,29.97,West,265,2.0,9.0,63,0.00,,---,0.00,VWS V14.01,2013-03-07 18:29:00,
2013-03-07 13:39:00,49.4,36.5,29.97,WNW,282,2.0,9.0,61,0.00,,---,0.00,VWS V14.01,2013-03-07 18:39:00,
2013-03-07 13:50:00,49.1,36.7,29.97,SW,236,1.0,11.0,62,0.00,,---,0.00,VWS V14.01,2013-03-07 18:50:00,
2013-03-07 13:59:00,48.8,37.2,29.97,West,265,2.0,11.0,64,0.00,,---,0.00,VWS V14.01,2013-03-07 18:59:00,
2013-03-07 14:10:00,48.6,36.6,29.97,WNW,299,0.0,17.0,63,0.00,,---,0.00,VWS V14.01,2013-03-07 19:10:00,
2013-03-07 14:20:00,48.0,35.6,29.97,West,260,0.0,13.0,62,0.00,,---,0.00,VWS V14.01,2013-03-07 19:20:00,
2013-03-07 14:30:00,48.8,36.4,29.97,North,357,6.0,10.0,62,0.00,,---,0.00,VWS V14.01,2013-03-07 19:30:00,
2013-03-07 14:39:00,49.1,36.2,29.97,NNW,335,2.0,13.0,61,0.00,,---,0.00,VWS V14.01,2013-03-07 19:39:00,
2013-03-07 14:50:00,48.8,36.8,29.97,WNW,295,3.0,10.0,63,0.00,,---,0.00,VWS V14.01,2013-03-07 19:50:00,
2013-03-07 15:00:00,48.9,37.3,29.97,WSW,244,0.0,10.0,64,0.00,,---,0.00,VWS V14.01,2013-03-07 20:00:00,
2013-03-07 15:09:00,48.9,36.9,29.97,West,281,1.0,8.0,63,0.00,,---,0.00,VWS V14.01,2013-03-07 20:09:00,
2013-03-07 15:19:00,48.8,36.4,29.97,WSW,247,3.0,10.0,62,0.00,,---,0.00,VWS V14.01,2013-03-07 20:19:00,
2013-03-07 15:30:00,48.5,36.1,29.97,SW,223,3.0,11.0,62,0.00,,---,0.00,VWS V14.01,2013-03-07 20:30:00,
2013-03-07 15:39:00,49.4,36.1,29.97,West,275,3.0,8.0,60,0.00,,---,0.00,VWS V14.01,2013-03-07 20:39:00,
2013-03-07 15:50:00,49.8,36.1,29.97,WSW,257,0.0,11.0,59,0.00,,---,0.00,VWS V14.01,2013-03-07 20:50:00,
2013-03-07 16:00:00,50.1,36.3,29.97,NW,305,3.0,10.0,59,0.00,,---,0.00,VWS V14.01,2013-03-07 21:00:00,
2013-03-07 16:09:00,50.1,37.2,29.97,NW,322,1.0,11.0,61,0.00,,---,0.00,VWS V14.01,2013-03-07 21:09:00,
2013-03-07 16:19:00,49.6,36.3,29.97,WSW,241,4.0,8.0,60,0.00,,---,0.00,VWS V14.01,2013-03-07 21:19:00,
2013-03-07 16:29:00,49.6,36.3,29.98,NNW,342,5.0,7.0,60,0.00,,---,0.00,VWS V14.01,2013-03-07 21:29:00,
2013-03-07 16:40:00,49.8,36.5,29.98,NW,309,4.0,7.0,60,0.00,,---,0.00,VWS V14.01,2013-03-07 21:40:00,
2013-03-07 16:49:00,48.9,36.1,29.98,NW,308,2.0,10.0,61,0.00,,---,0.00,VWS V14.01,2013-03-07 21:49:00,
2013-03-07 17:00:00,48.9,36.1,29.99,WNW,287,8.0,11.0,61,0.00,,---,0.00,VWS V14.01,2013-03-07 22:00:00,
2013-03-07 17:09:00,48.6,36.6,29.99,West,264,0.0,8.0,63,0.00,,---,0.00,VWS V14.01,2013-03-07 22:09:00,
2013-03-07 17:20:00,48.5,36.1,29.99,WNW,285,0.0,0.0,62,0.00,,---,0.00,VWS V14.01,2013-03-07 22:20:00,
2013-03-07 17:30:00,48.2,35.8,30.00,WNW,288,2.0,8.0,62,0.00,,---,0.00,VWS V14.01,2013-03-07 22:30:00,
2013-03-07 17:40:00,48.0,35.2,30.00,SW,236,5.0,7.0,61,0.00,,---,0.00,VWS V14.01,2013-03-07 22:40:00,
2013-03-07 17:50:00,47.6,35.2,30.00,NNW,337,4.0,12.0,62,0.00,,---,0.00,VWS V14.01,2013-03-07 22:50:00,
2013-03-07 18:00:00,47.3,35.4,30.01,West,265,0.0,7.0,63,0.00,,---,0.00,VWS V14.01,2013-03-07 23:00:00,
2013-03-07 18:09:00,47.0,35.9,30.01,NW,312,2.0,7.0,65,0.00,,---,0.00,VWS V14.01,2013-03-07 23:09:00,
2013-03-07 18:19:00,46.4,34.9,30.02,WSW,258,0.0,5.0,64,0.00,,---,0.00,VWS V14.01,2013-03-07 23:19:00,
2013-03-07 18:29:00,46.1,35.0,30.02,West,272,0.0,4.0,65,0.00,,---,0.00,VWS V14.01,2013-03-07 23:29:00,
2013-03-07 18:39:00,45.7,35.0,30.02,West,272,0.0,1.0,66,0.00,,---,0.00,VWS V14.01,2013-03-07 23:39:00,
2013-03-07 18:49:00,45.2,34.5,30.03,West,272,0.0,0.0,66,0.00,,---,0.00,VWS V14.01,2013-03-07 23:49:00,
2013-03-07 19:00:00,44.8,34.9,30.03,West,272,0.0,0.0,68,0.00,,---,0.00,VWS V14.01,2013-03-08 00:00:00,
2013-03-07 19:10:00,44.5,34.2,30.03,West,280,0.0,6.0,67,0.00,,---,0.00,VWS V14.01,2013-03-08 00:10:00,
2013-03-07 19:19:00,44.2,34.7,30.04,SW,227,0.0,3.0,69,0.00,,---,0.00,VWS V14.01,2013-03-08 00:19:00,
2013-03-07 19:30:00,43.9,34.4,30.04,SW,229,0.0,1.0,69,0.00,,---,0.00,VWS V14.01,2013-03-08 00:30:00,
2013-03-07 19:39:00,43.6,34.5,30.04,SW,229,0.0,0.0,70,0.00,,---,0.00,VWS V14.01,2013-03-08 00:39:00,
2013-03-07 19:50:00,43.5,34.4,30.05,SW,229,0.0,0.0,70,0.00,,---,0.00,VWS V14.01,2013-03-08 00:50:00,
2013-03-07 20:00:00,43.3,34.2,30.05,SW,230,0.0,2.0,70,0.00,,---,0.00,VWS V14.01,2013-03-08 01:00:00,
2013-03-07 20:09:00,43.1,34.0,30.05,WSW,254,0.0,5.0,70,0.00,,---,0.00,VWS V14.01,2013-03-08 01:09:00,
2013-03-07 20:19:00,42.8,34.1,30.05,WSW,253,0.0,6.0,71,0.00,,---,0.00,VWS V14.01,2013-03-08 01:19:00,
2013-03-07 20:30:00,42.5,33.4,30.06,West,261,2.0,5.0,70,0.00,,---,0.00,VWS V14.01,2013-03-08 01:30:00,
2013-03-07 20:40:00,42.3,33.2,30.06,WSW,254,0.0,7.0,70,0.00,,---,0.00,VWS V14.01,2013-03-08 01:40:00,
2013-03-07 20:49:00,41.9,33.2,30.06,WSW,243,1.0,6.0,71,0.00,,---,0.00,VWS V14.01,2013-03-08 01:49:00,
2013-03-07 21:00:00,41.6,32.9,30.07,WSW,247,3.0,3.0,71,0.00,,---,0.00,VWS V14.01,2013-03-08 02:00:00,
2013-03-07 21:09:00,41.3,33.0,30.07,WSW,240,0.0,3.0,72,0.00,,---,0.00,VWS V14.01,2013-03-08 02:09:00,
2013-03-07 21:19:00,41.2,32.9,30.07,West,272,0.0,3.0,72,0.00,,---,0.00,VWS V14.01,2013-03-08 02:19:00,
2013-03-07 21:30:00,41.1,33.1,30.08,West,272,0.0,3.0,73,0.00,,---,0.00,VWS V14.01,2013-03-08 02:30:00,
2013-03-07 21:39:00,40.8,33.2,30.08,WSW,247,1.0,3.0,74,0.00,,---,0.00,VWS V14.01,2013-03-08 02:39:00,
2013-03-07 21:50:00,40.6,32.6,30.08,WSW,247,0.0,1.0,73,0.00,,---,0.00,VWS V14.01,2013-03-08 02:50:00,
2013-03-07 21:59:00,40.3,32.7,30.08,WSW,247,0.0,0.0,74,0.00,,---,0.00,VWS V14.01,2013-03-08 02:59:00,
2013-03-07 22:09:00,40.1,32.8,30.08,West,271,0.0,5.0,75,0.00,,---,0.00,VWS V14.01,2013-03-08 03:09:00,
2013-03-07 22:20:00,39.8,32.5,30.08,West,265,0.0,2.0,75,0.00,,---,0.00,VWS V14.01,2013-03-08 03:20:00,
2013-03-07 22:30:00,39.5,32.2,30.07,West,263,0.0,0.0,75,0.00,,---,0.00,VWS V14.01,2013-03-08 03:30:00,
2013-03-07 22:39:00,39.2,32.0,30.07,West,261,0.0,0.0,75,0.00,,---,0.00,VWS V14.01,2013-03-08 03:39:00,
2013-03-07 22:50:00,39.2,32.0,30.08,West,260,0.0,2.0,75,0.00,,---,0.00,VWS V14.01,2013-03-08 03:50:00,
2013-03-07 23:00:00,38.9,31.7,30.08,West,260,0.0,3.0,75,0.00,,---,0.00,VWS V14.01,2013-03-08 04:00:00,
2013-03-07 23:10:00,38.9,31.7,30.08,West,278,0.0,3.0,75,0.00,,---,0.00,VWS V14.01,2013-03-08 04:10:00,
2013-03-07 23:20:00,38.6,31.7,30.08,West,278,0.0,2.0,76,0.00,,---,0.00,VWS V14.01,2013-03-08 04:20:00,
2013-03-07 23:29:00,38.3,31.7,30.08,WSW,248,0.0,0.0,77,0.00,,---,0.00,VWS V14.01,2013-03-08 04:29:00,
2013-03-07 23:40:00,38.0,31.8,30.08,West,265,0.0,2.0,78,0.00,,---,0.00,VWS V14.01,2013-03-08 04:40:00,
2013-03-07 23:49:00,37.8,31.6,30.07,West,277,0.0,3.0,78,0.00,,---,0.00,VWS V14.01,2013-03-08 04:49:00,